Starlink 32233

operational
NORAD ID: 60434 Int'l Des: 2024-144 Owner: SPXS Country: US Constellation: starlink
LEOCIRCULAR

Starlink 32233について

説明を読み込み中...

リアルタイム位置

3D地球を読み込み中...

次回通過

高度履歴

Altitude vs Time

uPlot chart will show altitude changes over time

軌道要素

1 60434U 24144K 25352.00500298 -.00000583 00000-0 -75502-5 0 9995
2 60434 53.1601 236.4957 0001544 80.1151 280.0024 15.30192664 76805
Epoch: Dec 18, 2025 • Age: 17 hours

現在のステータス

高度 477.5 km
速度 7.63 km/s
衛星直下点 38.08°N, 82.47°W
打ち上げ日 Aug 12, 2024
運用期間 1.3 years
タイプ internet

技術仕様

分類 Payload
質量 730.00 kg
乾燥質量 700.00 kg
総質量 730.00 kg
長さ 0.30 m
直径 4.10 m
スパン 29.00 m
形状 Box + pan
製造者 SPXS
バスタイプ Starlink V2M
フェーズステータス In Orbit
所有者/国 SPXS/US

大規模コンステレーション

Loading constellations...